"Sample Date","Sample Time","Sample Value","Units","Flow Rate","Laser Status","Micron Size 0","Counts/Channel 0","Micron Size 1","Counts/Channel 1","Micron Size 2","Counts/Channel 2","Micron Size 3","Counts/Channel 3","Micron Size 4","Counts/Channel 4","Micron Size 5","Counts/Channel 5","Micron Size 6","Counts/Channel 6","Micron Size 7","Counts/Channel 7","Micron Size 8","Counts/Channel 8","Micron Size 9","Counts/Channel 9","Micron Size 10","Counts/Channel 10","Micron Size 11","Counts/Channel 11","Micron Size 12","Counts/Channel 12","Micron Size 13","Counts/Channel 13","Micron Size 14","Counts/Channel 14","Micron Size 15","Counts/Channel 15","Micron Size 16","Counts/Channel 16","Micron Size 17","Counts/Channel 17","Micron Size 18","Counts/Channel 18","Micron Size 19","Counts/Channel 19","Micron Size 20","Counts/Channel 20","Micron Size 21","Counts/Channel 21","Micron Size 22","Counts/Channel 22","Micron Size 23","Counts/Channel 23","Micron Size 24","Counts/Channel 24","Micron Size 25","Counts/Channel 25","Micron Size 26","Counts/Channel 26","Micron Size 27","Counts/Channel 27","Micron Size 28","Counts/Channel 28","Micron Size 29","Counts/Channel 29","Micron Size 30","Counts/Channel 30","Micron Size 31","Counts/Channel 31"
"05/03/07","06:00:05",56838.000,"cc",28344.832,1,0.100,44936.000,0.200,10544.000,0.300,1279.000,0.500,65.000,1.000,14.000,5.000,0
"05/03/07","06:00:11",57450.000,"cc",28333.248,1,0.100,45288.000,0.200,10844.000,0.300,1226.000,0.500,74.000,1.000,18.000,5.000,0
"05/03/07","06:00:17",57723.000,"cc",28353.240,1,0.100,45668.000,0.200,10689.000,0.300,1298.000,0.500,62.000,1.000,6.000,5.000,0
"05/03/07","06:00:23",56869.000,"cc",28275.961,1,0.100,44999.000,0.200,10520.000,0.300,1284.000,0.500,62.000,1.000,4.000,5.000,0
"05/03/07","06:00:29",57966.000,"cc",28272.098,1,0.100,45849.000,0.200,10742.000,0.300,1311.000,0.500,52.000,1.000,12.000,5.000,0
"05/03/07","06:00:35",56956.000,"cc",28379.467,1,0.100,45042.000,0.200,10573.000,0.300,1251.000,0.500,73.000,1.000,17.000,5.000,0
"05/03/07","06:00:41",57222.000,"cc",28295.678,1,0.100,45291.000,0.200,10575.000,0.300,1284.000,0.500,60.000,1.000,12.000,5.000,0
"05/03/07","06:00:47",57341.000,"cc",28293.672,1,0.100,45295.000,0.200,10682.000,0.300,1297.000,0.500,55.000,1.000,12.000,5.000,0
"05/03/07","06:00:53",56923.000,"cc",28340.992,1,0.100,45027.000,0.200,10533.000,0.300,1292.000,0.500,60.000,1.000,11.000,5.000,0
"05/03/07","06:00:59",57308.000,"cc",28344.127,1,0.100,45323.000,0.200,10571.000,0.300,1333.000,0.500,71.000,1.000,10.000,5.000,0
"05/03/07","06:01:05",57621.000,"cc",28276.830,1,0.100,45647.000,0.200,10646.000,0.300,1270.000,0.500,55.000,1.000,3.000,5.000,0
"05/03/07","06:01:11",57706.000,"cc",28309.236,1,0.100,45683.000,0.200,10680.000,0.300,1279.000,0.500,54.000,1.000,10.000,5.000,0
"05/03/07","06:01:17",57601.000,"cc",28331.514,1,0.100,45506.000,0.200,10671.000,0.300,1361.000,0.500,58.000,1.000,5.000,5.000,0
"05/03/07","06:01:23",57276.000,"cc",28334.947,1,0.100,45531.000,0.200,10395.000,0.300,1284.000,0.500,56.000,1.000,10.000,5.000,0
"05/03/07","06:01:29",56944.000,"cc",28335.594,1,0.100,44867.000,0.200,10742.000,0.300,1285.000,0.500,44.000,1.000,6.000,5.000,0
"05/03/07","06:01:35",56896.000,"cc",28327.037,1,0.100,45114.000,0.200,10405.000,0.300,1315.000,0.500,52.000,1.000,10.000,5.000,0
"05/03/07","06:01:41",57200.000,"cc",28244.971,1,0.100,45399.000,0.200,10484.000,0.300,1260.000,0.500,55.000,1.000,2.000,5.000,0
"05/03/07","06:01:47",57349.000,"cc",28362.098,1,0.100,45489.000,0.200,10442.000,0.300,1370.000,0.500,41.000,1.000,7.000,5.000,0
"05/03/07","06:01:53",57435.000,"cc",28308.305,1,0.100,45283.000,0.200,10776.000,0.300,1304.000,0.500,64.000,1.000,8.000,5.000,0
"05/03/07","06:01:59",56843.000,"cc",28322.113,1,0.100,44930.000,0.200,10559.000,0.300,1304.000,0.500,46.000,1.000,4.000,5.000,0
"05/03/07","06:02:05",57286.000,"cc",28316.775,1,0.100,45323.000,0.200,10648.000,0.300,1262.000,0.500,45.000,1.000,8.000,5.000,0
"05/03/07","06:02:11",56470.000,"cc",28334.877,1,0.100,44531.000,0.200,10546.000,0.300,1335.000,0.500,52.000,1.000,6.000,5.000,0
"05/03/07","06:02:17",56722.000,"cc",28281.205,1,0.100,44758.000,0.200,10543.000,0.300,1355.000,0.500,53.000,1.000,13.000,5.000,0
"05/03/07","06:02:23",55967.000,"cc",28330.467,1,0.100,44103.000,0.200,10454.000,0.300,1353.000,0.500,49.000,1.000,8.000,5.000,0
"05/03/07","06:02:29",56032.000,"cc",28298.565,1,0.100,44154.000,0.200,10561.000,0.300,1259.000,0.500,51.000,1.000,7.000,5.000,0
"05/03/07","06:02:35",55773.000,"cc",28291.375,1,0.100,43923.000,0.200,10448.000,0.300,1344.000,0.500,52.000,1.000,6.000,5.000,0
"05/03/07","06:02:41",55284.000,"cc",28323.574,1,0.100,43705.000,0.200,10301.000,0.300,1197.000,0.500,72.000,1.000,9.000,5.000,0
"05/03/07","06:02:47",55734.000,"cc",28350.785,1,0.100,44185.000,0.200,10266.000,0.300,1216.000,0.500,58.000,1.000,9.000,5.000,0
"05/03/07","06:02:53",54995.000,"cc",28324.908,1,0.100,43405.000,0.200,10217.000,0.300,1306.000,0.500,55.000,1.000,12.000,5.000,0
"05/03/07","06:02:59",54584.000,"cc",28357.174,1,0.100,43053.000,0.200,10313.000,0.300,1157.000,0.500,53.000,1.000,8.000,5.000,0
"05/03/07","06:03:05",54300.000,"cc",28291.338,1,0.100,43134.000,0.200,9846.000,0.300,1261.000,0.500,49.000,1.000,10.000,5.000,0
"05/03/07","06:03:11",53889.000,"cc",28282.772,1,0.100,42536.000,0.200,10018.000,0.300,1264.000,0.500,56.000,1.000,15.000,5.000,0
"05/03/07","06:03:17",54303.000,"cc",28316.270,1,0.100,42940.000,0.200,10019.000,0.300,1267.000,0.500,64.000,1.000,13.000,5.000,0
"05/03/07","06:03:23",53590.000,"cc",28322.459,1,0.100,42378.000,0.200,9878.000,0.300,1254.000,0.500,67.000,1.000,13.000,5.000,0
"05/03/07","06:03:29",53208.000,"cc",28353.016,1,0.100,42060.000,0.200,9849.000,0.300,1221.000,0.500,64.000,1.000,14.000,5.000,0
"05/03/07","06:03:35",53925.000,"cc",28249.617,1,0.100,42545.000,0.200,10066.000,0.300,1238.000,0.500,63.000,1.000,13.000,5.000,0
"05/03/07","06:03:41",53913.000,"cc",28335.922,1,0.100,42532.000,0.200,10087.000,0.300,1226.000,0.500,56.000,1.000,12.000,5.000,0
"05/03/07","06:03:47",53676.000,"cc",28321.914,1,0.100,42238.000,0.200,10112.000,0.300,1251.000,0.500,67.000,1.000,8.000,5.000,0
"05/03/07","06:03:53",53047.000,"cc",28291.055,1,0.100,41938.000,0.200,9855.000,0.300,1168.000,0.500,76.000,1.000,10.000,5.000,0
"05/03/07","06:03:59",53425.000,"cc",28310.072,1,0.100,42275.000,0.200,9863.000,0.300,1224.000,0.500,53.000,1.000,10.000,5.000,0
"05/03/07","06:04:05",53738.000,"cc",28374.158,1,0.100,42562.000,0.200,9882.000,0.300,1220.000,0.500,66.000,1.000,8.000,5.000,0
"05/03/07","06:04:11",53948.000,"cc",28326.715,1,0.100,42638.000,0.200,10029.000,0.300,1199.000,0.500,74.000,1.000,8.000,5.000,0
"05/03/07","06:04:17",53590.000,"cc",28338.232,1,0.100,42336.000,0.200,9907.000,0.300,1282.000,0.500,51.000,1.000,14.000,5.000,0
"05/03/07","06:04:23",53963.000,"cc",28304.375,1,0.100,42534.000,0.200,10075.000,0.300,1277.000,0.500,66.000,1.000,11.000,5.000,0
"05/03/07","06:04:29",53592.000,"cc",28338.289,1,0.100,42257.000,0.200,10077.000,0.300,1195.000,0.500,58.000,1.000,5.000,5.000,0
"05/03/07","06:04:35",54165.000,"cc",28267.191,1,0.100,42770.000,0.200,10097.000,0.300,1240.000,0.500,56.000,1.000,2.000,5.000,0
"05/03/07","06:04:41",53479.000,"cc",28321.293,1,0.100,42257.000,0.200,9902.000,0.300,1260.000,0.500,52.000,1.000,8.000,5.000,0
"05/03/07","06:04:47",54144.000,"cc",28289.150,1,0.100,42822.000,0.200,9992.000,0.300,1259.000,0.500,63.000,1.000,8.000,5.000,0
"05/03/07","06:04:53",54199.000,"cc",28305.525,1,0.100,42924.000,0.200,10002.000,0.300,1219.000,0.500,43.000,1.000,11.000,5.000,0
"05/03/07","06:04:59",54085.000,"cc",28335.828,1,0.100,42824.000,0.200,9915.000,0.300,1296.000,0.500,45.000,1.000,5.000,5.000,0
"05/03/07","06:05:05",54332.000,"cc",28347.576,1,0.100,42899.000,0.200,10119.000,0.300,1251.000,0.500,53.000,1.000,10.000,5.000,0
"05/03/07","06:05:11",53992.000,"cc",28306.279,1,0.100,42778.000,0.200,9962.000,0.300,1181.000,0.500,57.000,1.000,14.000,5.000,0
"05/03/07","06:05:17",54280.000,"cc",28311.846,1,0.100,42753.000,0.200,10220.000,0.300,1259.000,0.500,42.000,1.000,6.000,5.000,0
"05/03/07","06:05:23",53949.000,"cc",28298.773,1,0.100,42774.000,0.200,9879.000,0.300,1230.000,0.500,60.000,1.000,6.000,5.000,0
"05/03/07","06:05:29",54351.000,"cc",28341.947,1,0.100,42883.000,0.200,10103.000,0.300,1302.000,0.500,47.000,1.000,16.000,5.000,0
"05/03/07","06:05:35",53948.000,"cc",28331.590,1,0.100,42651.000,0.200,9992.000,0.300,1234.000,0.500,64.000,1.000,7.000,5.000,0
"05/03/07","06:05:41",54426.000,"cc",28336.328,1,0.100,42996.000,0.200,10063.000,0.300,1311.000,0.500,46.000,1.000,10.000,5.000,0
"05/03/07","06:05:47",54281.000,"cc",28294.682,1,0.100,42919.000,0.200,10092.000,0.300,1210.000,0.500,50.000,1.000,10.000,5.000,0
"05/03/07","06:05:53",54325.000,"cc",28266.836,1,0.100,42870.000,0.200,10133.000,0.300,1249.000,0.500,69.000,1.000,4.000,5.000,0
"05/03/07","06:05:59",54744.000,"cc",28302.106,1,0.100,43162.000,0.200,10232.000,0.300,1290.000,0.500,50.000,1.000,10.000,5.000,0
"05/03/07","06:06:05",54426.000,"cc",28401.596,1,0.100,42983.000,0.200,10203.000,0.300,1189.000,0.500,46.000,1.000,5.000,5.000,0
"05/03/07","06:06:11",54190.000,"cc",28272.357,1,0.100,42836.000,0.200,10060.000,0.300,1237.000,0.500,52.000,1.000,5.000,5.000,0
"05/03/07","06:06:17",54220.000,"cc",28299.770,1,0.100,42867.000,0.200,10064.000,0.300,1218.000,0.500,67.000,1.000,4.000,5.000,0
"05/03/07","06:06:23",54283.000,"cc",28298.373,1,0.100,42896.000,0.200,10070.000,0.300,1258.000,0.500,50.000,1.000,9.000,5.000,0
"05/03/07","06:06:29",54103.000,"cc",28377.877,1,0.100,42638.000,0.200,10110.000,0.300,1293.000,0.500,56.000,1.000,6.000,5.000,0
"05/03/07","06:06:35",53647.000,"cc",28294.900,1,0.100,42253.000,0.200,10069.000,0.300,1268.000,0.500,51.000,1.000,6.000,5.000,0
"05/03/07","06:06:41",53696.000,"cc",28323.598,1,0.100,42583.000,0.200,9900.000,0.300,1159.000,0.500,44.000,1.000,10.000,5.000,0
"05/03/07","06:06:47",53759.000,"cc",28354.229,1,0.100,42489.000,0.200,9989.000,0.300,1233.000,0.500,40.000,1.000,8.000,5.000,0
"05/03/07","06:06:53",53833.000,"cc",28283.604,1,0.100,42481.000,0.200,10013.000,0.300,1290.000,0.500,42.000,1.000,7.000,5.000,0
"05/03/07","06:06:59",53860.000,"cc",28293.299,1,0.100,42476.000,0.200,10060.000,0.300,1266.000,0.500,54.000,1.000,4.000,5.000,0
"05/03/07","06:07:05",53946.000,"cc",28318.084,1,0.100,42607.000,0.200,10032.000,0.300,1254.000,0.500,47.000,1.000,6.000,5.000,0
"05/03/07","06:07:11",53656.000,"cc",28285.449,1,0.100,42602.000,0.200,9798.000,0.300,1208.000,0.500,47.000,1.000,1.000,5.000,0
"05/03/07","06:07:17",53208.000,"cc",28234.482,1,0.100,42096.000,0.200,9809.000,0.300,1258.000,0.500,41.000,1.000,4.000,5.000,0
"05/03/07","06:07:23",53583.000,"cc",28346.117,1,0.100,42395.000,0.200,9886.000,0.300,1254.000,0.500,40.000,1.000,8.000,5.000,0
"05/03/07","06:07:29",53382.000,"cc",28353.363,1,0.100,42009.000,0.200,10075.000,0.300,1243.000,0.500,49.000,1.000,6.000,5.000,0
"05/03/07","06:07:35",53204.000,"cc",28345.750,1,0.100,42284.000,0.200,9647.000,0.300,1209.000,0.500,57.000,1.000,7.000,5.000,0
"05/03/07","06:07:41",52627.000,"cc",28331.928,1,0.100,41561.000,0.200,9823.000,0.300,1182.000,0.500,55.000,1.000,6.000,5.000,0
"05/03/07","06:07:47",52719.000,"cc",28241.273,1,0.100,41770.000,0.200,9711.000,0.300,1182.000,0.500,45.000,1.000,11.000,5.000,0
"05/03/07","06:07:53",52449.000,"cc",28356.053,1,0.100,41587.000,0.200,9648.000,0.300,1176.000,0.500,33.000,1.000,5.000,5.000,0
"05/03/07","06:07:59",52669.000,"cc",28359.879,1,0.100,41798.000,0.200,9587.000,0.300,1232.000,0.500,50.000,1.000,2.000,5.000,0
"05/03/07","06:08:05",51912.000,"cc",28355.459,1,0.100,40905.000,0.200,9748.000,0.300,1184.000,0.500,66.000,1.000,9.000,5.000,0
"05/03/07","06:08:11",52049.000,"cc",28286.264,1,0.100,41287.000,0.200,9490.000,0.300,1218.000,0.500,50.000,1.000,4.000,5.000,0
"05/03/07","06:08:17",52311.000,"cc",28317.029,1,0.100,41466.000,0.200,9535.000,0.300,1243.000,0.500,63.000,1.000,4.000,5.000,0
"05/03/07","06:08:23",52489.000,"cc",28310.195,1,0.100,41302.000,0.200,9900.000,0.300,1228.000,0.500,54.000,1.000,5.000,5.000,0
"05/03/07","06:08:29",52947.000,"cc",28263.816,1,0.100,41823.000,0.200,9853.000,0.300,1222.000,0.500,45.000,1.000,4.000,5.000,0
"05/03/07","06:08:35",53250.000,"cc",28318.035,1,0.100,42249.000,0.200,9751.000,0.300,1204.000,0.500,44.000,1.000,2.000,5.000,0
"05/03/07","06:08:41",52987.000,"cc",28331.773,1,0.100,41861.000,0.200,9775.000,0.300,1293.000,0.500,57.000,1.000,1.000,5.000,0
"05/03/07","06:08:47",52957.000,"cc",28332.025,1,0.100,41766.000,0.200,9873.000,0.300,1272.000,0.500,39.000,1.000,7.000,5.000,0
"05/03/07","06:08:53",52497.000,"cc",28332.354,1,0.100,41618.000,0.200,9591.000,0.300,1232.000,0.500,50.000,1.000,6.000,5.000,0
"05/03/07","06:08:59",52383.000,"cc",28346.348,1,0.100,41329.000,0.200,9793.000,0.300,1211.000,0.500,47.000,1.000,3.000,5.000,0
"05/03/07","06:09:05",52665.000,"cc",28260.551,1,0.100,41612.000,0.200,9785.000,0.300,1210.000,0.500,50.000,1.000,8.000,5.000,0
"05/03/07","06:09:11",52073.000,"cc",28278.816,1,0.100,40940.000,0.200,9877.000,0.300,1201.000,0.500,45.000,1.000,10.000,5.000,0
"05/03/07","06:09:17",51843.000,"cc",28362.402,1,0.100,40926.000,0.200,9678.000,0.300,1186.000,0.500,51.000,1.000,2.000,5.000,0
"05/03/07","06:09:23",52033.000,"cc",28340.826,1,0.100,41252.000,0.200,9589.000,0.300,1146.000,0.500,39.000,1.000,7.000,5.000,0
"05/03/07","06:09:29",52031.000,"cc",28299.897,1,0.100,41065.000,0.200,9749.000,0.300,1163.000,0.500,48.000,1.000,6.000,5.000,0
"05/03/07","06:09:35",52474.000,"cc",28335.260,1,0.100,41511.000,0.200,9634.000,0.300,1277.000,0.500,48.000,1.000,4.000,5.000,0
"05/03/07","06:09:41",52823.000,"cc",28282.635,1,0.100,41827.000,0.200,9771.000,0.300,1170.000,0.500,46.000,1.000,9.000,5.000,0
"05/03/07","06:09:47",52376.000,"cc",28262.494,1,0.100,41462.000,0.200,9680.000,0.300,1181.000,0.500,49.000,1.000,4.000,5.000,0
"05/03/07","06:09:53",53041.000,"cc",28365.029,1,0.100,42011.000,0.200,9801.000,0.300,1160.000,0.500,63.000,1.000,6.000,5.000,0
"05/03/07","06:09:59",52247.000,"cc",28325.758,1,0.100,41352.000,0.200,9644.000,0.300,1201.000,0.500,45.000,1.000,5.000,5.000,0
"05/03/07","06:10:05",52233.000,"cc",28345.580,1,0.100,41134.000,0.200,9799.000,0.300,1227.000,0.500,66.000,1.000,7.000,5.000,0
"05/03/07","06:10:11",52625.000,"cc",28350.904,1,0.100,41411.000,0.200,9991.000,0.300,1178.000,0.500,41.000,1.000,4.000,5.000,0
"05/03/07","06:10:17",52608.000,"cc",28332.750,1,0.100,41757.000,0.200,9641.000,0.300,1155.000,0.500,45.000,1.000,10.000,5.000,0
"05/03/07","06:10:23",52315.000,"cc",28283.609,1,0.100,41402.000,0.200,9615.000,0.300,1250.000,0.500,45.000,1.000,3.000,5.000,0
"05/03/07","06:10:29",51929.000,"cc",28285.152,1,0.100,41038.000,0.200,9631.000,0.300,1207.000,0.500,47.000,1.000,6.000,5.000,0
"05/03/07","06:10:35",52267.000,"cc",28298.008,1,0.100,41472.000,0.200,9587.000,0.300,1154.000,0.500,53.000,1.000,1.000,5.000,0
"05/03/07","06:10:41",52070.000,"cc",28278.334,1,0.100,41174.000,0.200,9651.000,0.300,1202.000,0.500,41.000,1.000,2.000,5.000,0
"05/03/07","06:10:47",51769.000,"cc",28362.412,1,0.100,40995.000,0.200,9502.000,0.300,1233.000,0.500,34.000,1.000,5.000,5.000,0
"05/03/07","06:10:53",51924.000,"cc",28377.037,1,0.100,41068.000,0.200,9609.000,0.300,1205.000,0.500,38.000,1.000,4.000,5.000,0
"05/03/07","06:10:59",51906.000,"cc",28320.262,1,0.100,41161.000,0.200,9519.000,0.300,1179.000,0.500,39.000,1.000,8.000,5.000,0
"05/03/07","06:11:05",51863.000,"cc",28260.582,1,0.100,40967.000,0.200,9638.000,0.300,1215.000,0.500,41.000,1.000,2.000,5.000,0
"05/03/07","06:11:11",52040.000,"cc",28345.717,1,0.100,41160.000,0.200,9651.000,0.300,1170.000,0.500,55.000,1.000,4.000,5.000,0
"05/03/07","06:11:17",52146.000,"cc",28334.234,1,0.100,41126.000,0.200,9778.000,0.300,1179.000,0.500,57.000,1.000,6.000,5.000,0
"05/03/07","06:11:23",51959.000,"cc",28286.504,1,0.100,41149.000,0.200,9562.000,0.300,1200.000,0.500,45.000,1.000,3.000,5.000,0
"05/03/07","06:11:29",51915.000,"cc",28329.088,1,0.100,41002.000,0.200,9696.000,0.300,1177.000,0.500,37.000,1.000,3.000,5.000,0
"05/03/07","06:11:35",52013.000,"cc",28332.914,1,0.100,41013.000,0.200,9771.000,0.300,1170.000,0.500,55.000,1.000,4.000,5.000,0
"05/03/07","06:11:41",52032.000,"cc",28296.451,1,0.100,41247.000,0.200,9589.000,0.300,1146.000,0.500,46.000,1.000,4.000,5.000,0
"05/03/07","06:11:47",51915.000,"cc",28282.643,1,0.100,41102.000,0.200,9569.000,0.300,1200.000,0.500,37.000,1.000,7.000,5.000,0
"05/03/07","06:11:53",52822.000,"cc",28360.191,1,0.100,41770.000,0.200,9824.000,0.300,1182.000,0.500,44.000,1.000,2.000,5.000,0
"05/03/07","06:11:59",53454.000,"cc",28313.041,1,0.100,42147.000,0.200,10018.000,0.300,1239.000,0.500,43.000,1.000,7.000,5.000,0
"05/03/07","06:12:05",53493.000,"cc",28306.367,1,0.100,42357.000,0.200,9855.000,0.300,1222.000,0.500,51.000,1.000,8.000,5.000,0
"05/03/07","06:12:11",53377.000,"cc",28297.143,1,0.100,42308.000,0.200,9791.000,0.300,1225.000,0.500,48.000,1.000,5.000,5.000,0
"05/03/07","06:12:17",53616.000,"cc",28303.152,1,0.100,42463.000,0.200,9988.000,0.300,1133.000,0.500,29.000,1.000,3.000,5.000,0
"05/03/07","06:12:23",53648.000,"cc",28363.764,1,0.100,42556.000,0.200,9800.000,0.300,1248.000,0.500,39.000,1.000,5.000,5.000,0
"05/03/07","06:12:29",53801.000,"cc",28319.322,1,0.100,42608.000,0.200,9908.000,0.300,1240.000,0.500,40.000,1.000,5.000,5.000,0
"05/03/07","06:12:35",54652.000,"cc",28283.699,1,0.100,43273.000,0.200,10063.000,0.300,1254.000,0.500,52.000,1.000,10.000,5.000,0
"05/03/07","06:12:41",55129.000,"cc",28307.988,1,0.100,43564.000,0.200,10251.000,0.300,1261.000,0.500,46.000,1.000,7.000,5.000,0
"05/03/07","06:12:47",55120.000,"cc",28307.096,1,0.100,43514.000,0.200,10314.000,0.300,1245.000,0.500,42.000,1.000,5.000,5.000,0
"05/03/07","06:12:53",54979.000,"cc",28351.850,1,0.100,43638.000,0.200,10002.000,0.300,1285.000,0.500,48.000,1.000,6.000,5.000,0
"05/03/07","06:12:59",55348.000,"cc",28309.969,1,0.100,43521.000,0.200,10478.000,0.300,1298.000,0.500,47.000,1.000,4.000,5.000,0
"05/03/07","06:13:05",55886.000,"cc",28364.295,1,0.100,44118.000,0.200,10463.000,0.300,1256.000,0.500,42.000,1.000,7.000,5.000,0
"05/03/07","06:13:11",56224.000,"cc",28314.127,1,0.100,44705.000,0.200,10192.000,0.300,1273.000,0.500,52.000,1.000,2.000,5.000,0
"05/03/07","06:13:17",56302.000,"cc",28303.365,1,0.100,44450.000,0.200,10423.000,0.300,1368.000,0.500,54.000,1.000,7.000,5.000,0
"05/03/07","06:13:23",56693.000,"cc",28311.352,1,0.100,44816.000,0.200,10533.000,0.300,1303.000,0.500,41.000,1.000,0,5.000,0
"05/03/07","06:13:29",56392.000,"cc",28358.852,1,0.100,44583.000,0.200,10447.000,0.300,1298.000,0.500,58.000,1.000,6.000,5.000,0
"05/03/07","06:13:35",56572.000,"cc",28320.234,1,0.100,44642.000,0.200,10594.000,0.300,1285.000,0.500,48.000,1.000,3.000,5.000,0
"05/03/07","06:13:41",56408.000,"cc",28278.393,1,0.100,44619.000,0.200,10428.000,0.300,1303.000,0.500,56.000,1.000,2.000,5.000,0
"05/03/07","06:13:47",56869.000,"cc",28315.135,1,0.100,45006.000,0.200,10469.000,0.300,1346.000,0.500,44.000,1.000,4.000,5.000,0
"05/03/07","06:13:53",57654.000,"cc",28324.227,1,0.100,45492.000,0.200,10769.000,0.300,1349.000,0.500,41.000,1.000,3.000,5.000,0
"05/03/07","06:13:59",57862.000,"cc",28284.854,1,0.100,45827.000,0.200,10747.000,0.300,1247.000,0.500,41.000,1.000,0,5.000,0
"05/03/07","06:14:05",58036.000,"cc",28303.834,1,0.100,46005.000,0.200,10712.000,0.300,1271.000,0.500,44.000,1.000,4.000,5.000,0
"05/03/07","06:14:11",57937.000,"cc",28350.074,1,0.100,45911.000,0.200,10702.000,0.300,1282.000,0.500,39.000,1.000,3.000,5.000,0
"05/03/07","06:14:17",57686.000,"cc",28343.148,1,0.100,45666.000,0.200,10646.000,0.300,1315.000,0.500,55.000,1.000,4.000,5.000,0
"05/03/07","06:14:23",58112.000,"cc",28289.307,1,0.100,46093.000,0.200,10706.000,0.300,1255.000,0.500,50.000,1.000,8.000,5.000,0
"05/03/07","06:14:29",58678.000,"cc",28350.809,1,0.100,46354.000,0.200,10962.000,0.300,1319.000,0.500,37.000,1.000,6.000,5.000,0
"05/03/07","06:14:35",57860.000,"cc",28299.928,1,0.100,45853.000,0.200,10685.000,0.300,1280.000,0.500,37.000,1.000,5.000,5.000,0
"05/03/07","06:14:41",58450.000,"cc",28276.502,1,0.100,46379.000,0.200,10728.000,0.300,1286.000,0.500,54.000,1.000,3.000,5.000,0
"05/03/07","06:14:47",58990.000,"cc",28338.848,1,0.100,46584.000,0.200,11014.000,0.300,1349.000,0.500,38.000,1.000,5.000,5.000,0
"05/03/07","06:14:53",59444.000,"cc",28356.082,1,0.100,47231.000,0.200,10803.000,0.300,1368.000,0.500,40.000,1.000,2.000,5.000,0
"05/03/07","06:14:59",59455.000,"cc",28301.592,1,0.100,47196.000,0.200,10891.000,0.300,1327.000,0.500,40.000,1.000,1.000,5.000,0
"05/03/07","06:15:05",59720.000,"cc",28272.916,1,0.100,47171.000,0.200,11118.000,0.300,1368.000,0.500,57.000,1.000,6.000,5.000,0
"05/03/07","06:15:11",59173.000,"cc",28353.201,1,0.100,46975.000,0.200,10860.000,0.300,1293.000,0.500,41.000,1.000,4.000,5.000,0
"05/03/07","06:15:17",59245.000,"cc",28327.400,1,0.100,47056.000,0.200,10799.000,0.300,1334.000,0.500,53.000,1.000,3.000,5.000,0
"05/03/07","06:15:23",59855.000,"cc",28292.430,1,0.100,47471.000,0.200,11003.000,0.300,1335.000,0.500,39.000,1.000,7.000,5.000,0
"05/03/07","06:15:29",59402.000,"cc",28335.205,1,0.100,47049.000,0.200,10972.000,0.300,1333.000,0.500,45.000,1.000,3.000,5.000,0
"05/03/07","06:15:35",59170.000,"cc",28310.074,1,0.100,46956.000,0.200,10923.000,0.300,1242.000,0.500,48.000,1.000,1.000,5.000,0
"05/03/07","06:15:41",59970.000,"cc",28277.115,1,0.100,47386.000,0.200,11139.000,0.300,1398.000,0.500,42.000,1.000,5.000,5.000,0
"05/03/07","06:15:47",59896.000,"cc",28324.190,1,0.100,47241.000,0.200,11203.000,0.300,1389.000,0.500,57.000,1.000,6.000,5.000,0
"05/03/07","06:15:53",59208.000,"cc",28383.428,1,0.100,47019.000,0.200,10848.000,0.300,1289.000,0.500,50.000,1.000,2.000,5.000,0
"05/03/07","06:15:59",59874.000,"cc",28303.481,1,0.100,47354.000,0.200,11105.000,0.300,1356.000,0.500,55.000,1.000,4.000,5.000,0
"05/03/07","06:16:05",59519.000,"cc",28321.670,1,0.100,47096.000,0.200,11094.000,0.300,1292.000,0.500,35.000,1.000,2.000,5.000,0
"05/03/07","06:16:11",59998.000,"cc",28359.486,1,0.100,47597.000,0.200,11024.000,0.300,1327.000,0.500,49.000,1.000,1.000,5.000,0
"05/03/07","06:16:17",59688.000,"cc",28305.141,1,0.100,47155.000,0.200,11113.000,0.300,1376.000,0.500,40.000,1.000,4.000,5.000,0
"05/03/07","06:16:23",59833.000,"cc",28303.160,1,0.100,47261.000,0.200,11103.000,0.300,1425.000,0.500,42.000,1.000,2.000,5.000,0
"05/03/07","06:16:29",59582.000,"cc",28340.008,1,0.100,47292.000,0.200,10907.000,0.300,1339.000,0.500,38.000,1.000,6.000,5.000,0
"05/03/07","06:16:35",59304.000,"cc",28260.359,1,0.100,46894.000,0.200,10996.000,0.300,1359.000,0.500,51.000,1.000,4.000,5.000,0
"05/03/07","06:16:41",59248.000,"cc",28252.203,1,0.100,46957.000,0.200,10874.000,0.300,1355.000,0.500,54.000,1.000,8.000,5.000,0
"05/03/07","06:16:47",59033.000,"cc",28331.953,1,0.100,46507.000,0.200,11143.000,0.300,1333.000,0.500,47.000,1.000,3.000,5.000,0
"05/03/07","06:16:53",59106.000,"cc",28329.916,1,0.100,46953.000,0.200,10784.000,0.300,1300.000,0.500,66.000,1.000,3.000,5.000,0
"05/03/07","06:16:59",58547.000,"cc",28342.611,1,0.100,46263.000,0.200,10900.000,0.300,1320.000,0.500,54.000,1.000,10.000,5.000,0
"05/03/07","06:17:05",58743.000,"cc",28256.537,1,0.100,46480.000,0.200,10870.000,0.300,1338.000,0.500,46.000,1.000,9.000,5.000,0
"05/03/07","06:17:11",58363.000,"cc",28333.824,1,0.100,46134.000,0.200,10790.000,0.300,1379.000,0.500,54.000,1.000,6.000,5.000,0
"05/03/07","06:17:17",58264.000,"cc",28349.764,1,0.100,46080.000,0.200,10822.000,0.300,1296.000,0.500,59.000,1.000,7.000,5.000,0
"05/03/07","06:17:23",58643.000,"cc",28309.225,1,0.100,46570.000,0.200,10700.000,0.300,1319.000,0.500,49.000,1.000,5.000,5.000,0
"05/03/07","06:17:29",58115.000,"cc",28329.031,1,0.100,46002.000,0.200,10729.000,0.300,1318.000,0.500,59.000,1.000,7.000,5.000,0